Temp
71 71 71 70 70 70 69 68 68 69 69 69 69 69 69 71 71 71 71 70 70 70 69 69 70 70 71 70 69 69 69 69 69 68 68 68 68 68 68 68 67 67
71 71 72 70 69 71 69 70 69 69 69 68 69 69 70 70 71 71 70 69 71 71 70 70 70 70 70 70 69 68 68 69 69 70 68 68 69 68 69 69 68 66
70 70 70 69 69 69 69 69 69 69 69 69 69 69 70 71 71 70 70 70 70 70 70 70 70 70 69 69 69 69 70 69 69 69 69 69 68 68 69 70 69 68
70 71 71 70 70 69 69 68 68 68 69 68 68 70 71 71 71 70 69 71 69 70 70 69 70 70 69 69 69 69 69 68 69 69 69 69 69 69 69 69 69 68
71 70 71 70 70 70 69 69 68 68 68 69 69 69 70 70 69 69 68 69 69 70 69 69 69 69 69 69 68 68 68 68 68 68 67 68 68 68 69 69 68 68
71 71 70 70 70 69 68 69 69 68 69 69 69 70 70 70 69 69 69 69 69 69 69 69 69 69 69 69 68 68 68 68 68 67 67 67 68 68 68 69 68 68
71 71 70 71 70 70 69 69 69 70 69 70 69 69 69 69 69 69 69 69 69 69 69 69 69 69 68 68 67 67 67 67 67 67 67 67 68 68 68 68 68 67
72 71 71 71 70 69 70 69 69 70 70 69 69 69 69 70 69 70 69 69 69 69 69 69 68 68 68 67 67 67 67 67 67 67 67 67 67 67 68 68 67 67
72 71 71 70 71 70 71 70 70 70 70 70 70 70 69 70 70 69 69 69 69 69 68 68 68 68 68 67 67 67 67 67 67 67 67 67 67 67 68 67 66 67
71 71 71 71 72 71 72 71 72 71 71 70 70 70 69 69 70 69 69 69 69 69 68 68 68 67 67 67 67 67 67 67 67 67 67 67 67 67 68 67 67 66
72 72 71 71 73 73 72 72 73 73 72 71 71 70 70 69 69 69 69 68 68 69 68 68 68 68 67 67 67 67 67 67 67 67 66 67 67 67 67 67 66 66
72 72 73 72 73 73 73 73 74 72 71 71 71 71 70 70 69 69 69 68 69 69 69 69 68 68 68 68 68 67 66 67 67 67 67 67 67 67 67 67 66 66
73 72 72 73 71 71 71 71 73 72 71 71 72 72 71 70 69 69 69 69 69 69 69 69 68 68 67 67 67 66 66 66 66 66 66 67 67 67 67 66 66 66
74 71 69 69 69 69 70 71 70 70 70 70 71 71 72 71 70 69 69 69 69 69 69 68 68 68 67 67 67 67 66 66 66 67 66 66 66 66 66 67 66 67
73 72 69 69 70 69 69 69 69 70 70 69 70 70 71 72 71 70 69 68 68 68 68 68 68 68 68 68 67 67 66 66 66 66 66 66 66 66 66 66 66 66
70 68 68 68 69 69 68 69 70 70 70 69 69 70 70 70 70 69 70 69 68 67 68 67 67 68 67 65 66 69 68 67 66 66 66 66 66 66 66 66 66 66
67 68 69 69 69 69 69 69 70 70 69 69 69 69 69 69 69 69 69 69 69 68 67 67 68 68 65 63 64 66 68 68 67 66 66 66 66 66 66 67 66 66
67 68 69 69 69 68 69 70 69 69 68 68 68 68 68 69 68 68 68 69 68 68 68 68 68 66 63 63 64 64 65 68 68 67 67 66 65 65 65 66 66 65
68 69 69 69 68 68 69 69 68 68 67 67 68 69 69 67 68 68 68 67 68 68 68 69 69 66 63 63 63 63 64 66 68 67 66 66 65 65 65 64 64 64
69 69 69 69 68 68 68 68 68 68 68 69 70 69 68 67 68 68 68 67 68 68 68 68 68 65 63 62 62 62 63 64 67 66 65 65 65 64 64 64 63 63
69 70 68 67 68 68 68 67 67 67 68 68 69 68 67 67 67 67 68 68 69 68 67 67 69 64 61 60 59 59 60 63 66 65 64 64 63 63 64 64 63 63
69 67 66 67 67 67 67 67 67 67 67 67 67 66 67 67 67 68 68 68 67 67 66 67 70 63 60 59 59 58 60 64 64 64 64 64 63 63 63 63 62 62
68 67 67 66 66 67 67 67 67 66 66 67 66 66 66 66 67 68 68 68 67 67 67 67 68 63 59 57 56 57 59 63 63 63 63 62 62 62 62 62 62 61
68 68 67 67 66 67 66 66 66 67 67 67 66 66 66 68 68 66 66 67 67 66 66 67 68 65 59 57 56 57 59 63 63 62 62 62 62 60 60 60 60 62
68 68 68 67 65 66 65 65 65 65 66 66 67 67 67 66 67 65 64 64 66 66 66 67 66 63 59 59 58 56 59 63 62 62 62 62 59 58 58 60 60 60
68 68 67 66 65 65 65 65 65 65 65 65 65 66 64 64 64 64 63 63 64 65 65 65 64 65 65 59 56 54 56 62 62 61 62 61 58 59 61 61 60 59
MSLP
1013.86 1014.14 1014.42 1014.70 1014.86 1014.98 1015.30 1015.58 1015.74 1015.90 1016.18 1016.42 1016.70 1016.86 1016.94 1016.86 1016.86 1016.98 1017.02 1017.14 1017.18 1017.18 1017.30 1017.38 1017.50 1017.62 1017.62 1017.70 1017.74 1017.82 1017.90 1017.98 1018.06 1018.10 1018.22 1018.34 1018.46 1018.50 1018.58 1018.62 1018.74 1018.74
1013.74 1013.90 1014.10 1014.38 1014.70 1014.86 1015.10 1015.14 1015.42 1015.62 1015.94 1016.18 1016.30 1016.46 1016.58 1016.62 1016.70 1016.70 1016.90 1017.02 1017.06 1017.06 1017.02 1017.14 1017.26 1017.38 1017.46 1017.50 1017.58 1017.70 1017.78 1017.82 1017.90 1017.90 1018.06 1018.18 1018.22 1018.34 1018.42 1018.46 1018.46 1018.58
1013.54 1013.78 1013.94 1014.22 1014.46 1014.74 1014.98 1015.14 1015.26 1015.42 1015.62 1015.82 1015.94 1016.10 1016.30 1016.38 1016.50 1016.54 1016.62 1016.74 1016.94 1016.94 1016.94 1016.94 1017.06 1017.14 1017.22 1017.30 1017.42 1017.54 1017.58 1017.62 1017.66 1017.62 1017.82 1017.90 1017.98 1018.18 1018.14 1018.18 1018.30 1018.42
1013.30 1013.34 1013.50 1013.70 1013.98 1014.30 1014.62 1014.94 1015.22 1015.34 1015.42 1015.70 1015.82 1015.82 1015.90 1016.02 1016.14 1016.34 1016.50 1016.58 1016.78 1016.78 1016.78 1016.86 1016.94 1017.02 1017.14 1017.22 1017.34 1017.42 1017.42 1017.46 1017.42 1017.46 1017.62 1017.66 1017.74 1017.86 1017.94 1018.02 1018.10 1018.22
1012.66 1013.02 1013.14 1013.30 1013.58 1013.86 1014.26 1014.54 1014.82 1015.10 1015.22 1015.30 1015.46 1015.58 1015.66 1015.78 1015.98 1016.14 1016.34 1016.46 1016.58 1016.66 1016.74 1016.82 1016.90 1016.98 1017.06 1017.18 1017.26 1017.38 1017.38 1017.38 1017.34 1017.50 1017.58 1017.62 1017.58 1017.70 1017.70 1017.86 1017.94 1018.06
1012.22 1012.26 1012.58 1012.90 1013.22 1013.62 1014.06 1014.26 1014.46 1014.70 1014.82 1015.06 1015.10 1015.22 1015.34 1015.50 1015.70 1015.90 1016.10 1016.30 1016.46 1016.58 1016.70 1016.78 1016.86 1016.90 1016.98 1017.06 1017.22 1017.26 1017.30 1017.42 1017.34 1017.50 1017.62 1017.62 1017.50 1017.46 1017.50 1017.58 1017.74 1017.86
1011.90 1012.14 1012.42 1012.58 1012.94 1013.22 1013.50 1013.86 1014.06 1014.22 1014.46 1014.50 1014.70 1014.90 1015.06 1015.42 1015.70 1015.86 1016.02 1016.14 1016.34 1016.50 1016.62 1016.70 1016.78 1016.82 1016.86 1016.98 1017.14 1017.22 1017.26 1017.30 1017.34 1017.46 1017.54 1017.46 1017.38 1017.30 1017.30 1017.42 1017.58 1017.66
1011.70 1011.74 1011.78 1012.02 1012.46 1012.90 1013.22 1013.58 1013.70 1013.90 1014.14 1014.38 1014.54 1014.66 1014.86 1015.22 1015.54 1015.74 1015.94 1016.10 1016.26 1016.38 1016.50 1016.58 1016.62 1016.66 1016.66 1016.82 1017.02 1017.10 1017.14 1017.22 1017.26 1017.34 1017.42 1017.34 1017.30 1017.30 1017.14 1017.18 1017.30 1017.50
1011.14 1011.42 1011.62 1011.86 1012.02 1012.38 1012.74 1013.14 1013.26 1013.54 1013.86 1014.26 1014.58 1014.74 1014.82 1014.98 1015.30 1015.58 1015.78 1015.98 1016.10 1016.22 1016.34 1016.50 1016.54 1016.54 1016.58 1016.74 1016.86 1016.94 1016.98 1017.02 1017.06 1017.18 1017.26 1017.26 1017.26 1017.10 1016.98 1016.98 1017.22 1017.30
1010.74 1010.98 1011.34 1011.66 1011.82 1011.86 1012.14 1012.54 1012.86 1013.22 1013.74 1014.26 1014.46 1014.58 1014.70 1014.74 1014.98 1015.26 1015.58 1015.82 1015.98 1016.10 1016.26 1016.34 1016.42 1016.46 1016.50 1016.62 1016.66 1016.78 1016.86 1016.86 1016.86 1016.98 1017.06 1017.06 1017.02 1016.90 1016.86 1016.94 1016.98 1017.14
1010.54 1010.70 1010.98 1011.26 1011.50 1011.82 1012.26 1012.54 1012.50 1012.94 1013.46 1013.90 1014.14 1014.26 1014.26 1014.42 1014.78 1015.02 1015.38 1015.66 1015.86 1015.98 1016.14 1016.22 1016.26 1016.26 1016.34 1016.42 1016.46 1016.54 1016.58 1016.66 1016.66 1016.74 1016.82 1016.82 1016.78 1016.70 1016.62 1016.70 1016.82 1016.86
1010.26 1010.42 1010.54 1010.90 1011.30 1011.82 1012.18 1012.42 1012.74 1013.10 1013.50 1013.70 1013.74 1013.90 1014.06 1014.26 1014.58 1014.90 1015.14 1015.38 1015.54 1015.66 1015.82 1015.90 1015.94 1015.98 1016.02 1016.06 1016.10 1016.22 1016.34 1016.42 1016.42 1016.50 1016.54 1016.54 1016.50 1016.46 1016.42 1016.50 1016.58 1016.54
1009.62 1009.86 1010.50 1011.58 1012.42 1013.34 1013.50 1013.94 1013.94 1013.82 1013.82 1013.82 1013.62 1013.70 1013.90 1014.26 1014.50 1014.70 1014.86 1014.98 1015.18 1015.38 1015.54 1015.58 1015.62 1015.66 1015.74 1015.78 1015.82 1015.94 1016.06 1016.18 1016.22 1016.30 1016.34 1016.34 1016.30 1016.26 1016.22 1016.30 1016.34 1016.34
1008.94 1009.66 1010.86 1011.90 1012.58 1012.90 1013.06 1013.26 1013.42 1013.30 1013.42 1013.82 1013.90 1013.74 1013.74 1013.98 1014.26 1014.54 1014.66 1014.78 1014.90 1015.02 1015.06 1015.14 1015.22 1015.34 1015.42 1015.46 1015.50 1015.62 1015.82 1015.90 1015.98 1016.02 1016.10 1016.18 1016.14 1016.10 1016.06 1016.06 1016.06 1016.10
1008.82 1010.06 1011.18 1011.46 1011.14 1011.54 1012.06 1012.14 1012.14 1012.38 1012.78 1013.46 1014.02 1013.82 1013.50 1013.66 1013.90 1014.22 1014.54 1014.70 1014.70 1014.70 1014.74 1014.82 1014.94 1015.02 1015.02 1015.10 1015.26 1015.42 1015.50 1015.58 1015.62 1015.74 1015.86 1015.94 1015.94 1015.90 1015.86 1015.86 1015.86 1015.86
1010.46 1011.18 1011.74 1011.50 1010.94 1010.62 1010.94 1011.26 1011.50 1011.82 1012.42 1013.02 1013.58 1013.66 1013.50 1013.58 1013.78 1014.02 1014.18 1014.26 1014.42 1014.46 1014.50 1014.58 1014.62 1014.58 1014.54 1014.62 1014.74 1014.82 1014.98 1015.14 1015.34 1015.50 1015.66 1015.70 1015.70 1015.62 1015.58 1015.58 1015.62 1015.62
1009.74 1010.50 1010.62 1010.38 1009.98 1009.62 1010.10 1011.02 1011.94 1012.38 1012.62 1012.82 1013.14 1013.42 1013.46 1013.50 1013.62 1013.86 1013.90 1013.90 1013.98 1014.10 1014.22 1014.22 1014.18 1014.14 1014.10 1014.26 1014.38 1014.46 1014.62 1014.78 1015.02 1015.14 1015.30 1015.38 1015.34 1015.34 1015.26 1015.22 1015.30 1015.34
1008.66 1008.50 1008.58 1008.78 1009.10 1009.86 1010.66 1010.82 1011.66 1012.10 1012.58 1013.02 1013.38 1013.46 1013.34 1013.34 1013.46 1013.46 1013.46 1013.54 1013.66 1013.74 1013.74 1013.70 1013.70 1013.62 1013.70 1013.90 1014.02 1014.14 1014.34 1014.50 1014.62 1014.82 1014.90 1015.02 1015.02 1015.02 1015.02 1015.02 1015.02 1015.02
1008.26 1008.34 1008.46 1008.62 1009.42 1010.42 1010.66 1011.34 1011.50 1011.46 1011.70 1012.46 1012.82 1012.86 1012.94 1013.14 1013.10 1013.18 1013.30 1013.30 1013.34 1013.42 1013.38 1013.34 1013.38 1013.34 1013.50 1013.58 1013.66 1013.74 1013.90 1014.14 1014.26 1014.38 1014.62 1014.70 1014.78 1014.78 1014.78 1014.82 1014.86 1014.90
1008.06 1008.18 1008.46 1008.94 1009.66 1010.54 1010.98 1010.98 1011.54 1011.82 1011.82 1011.54 1011.50 1012.02 1012.62 1012.78 1012.86 1012.98 1012.98 1013.02 1012.98 1013.02 1013.06 1013.10 1013.18 1013.14 1013.22 1013.22 1013.30 1013.42 1013.58 1013.86 1013.90 1013.98 1014.18 1014.34 1014.38 1014.62 1014.78 1014.74 1014.66 1014.74
1008.14 1008.66 1009.50 1010.26 1010.62 1011.06 1011.50 1011.42 1011.22 1011.50 1012.02 1012.18 1011.82 1012.02 1012.26 1012.38 1012.58 1012.78 1012.74 1012.66 1012.66 1012.74 1012.90 1012.98 1012.90 1012.82 1012.98 1013.10 1013.26 1013.38 1013.46 1013.74 1013.86 1013.90 1013.98 1014.02 1014.30 1014.58 1014.58 1014.54 1014.50 1014.54
1008.02 1008.62 1008.90 1009.34 1009.50 1009.82 1009.94 1009.66 1009.78 1010.22 1010.94 1011.46 1011.66 1011.78 1011.82 1012.06 1012.34 1012.46 1012.46 1012.34 1012.34 1012.46 1012.62 1012.70 1012.50 1012.62 1012.74 1012.78 1012.90 1013.14 1013.50 1013.74 1013.78 1013.82 1013.78 1013.82 1013.90 1014.06 1014.30 1014.38 1014.38 1014.46
1007.34 1007.78 1008.30 1008.94 1009.46 1009.42 1009.42 1009.54 1010.06 1010.70 1011.06 1011.38 1011.54 1011.62 1011.66 1011.94 1012.14 1012.18 1012.06 1012.06 1012.14 1012.22 1012.34 1012.42 1012.46 1012.46 1012.54 1012.70 1012.90 1013.10 1013.38 1013.54 1013.66 1013.70 1013.70 1013.70 1013.70 1013.86 1014.02 1014.14 1014.26 1014.34
1007.10 1007.46 1007.86 1008.18 1008.54 1008.78 1009.18 1009.86 1010.46 1010.94 1011.26 1011.34 1011.46 1011.54 1011.58 1011.62 1011.90 1012.14 1012.14 1012.10 1011.98 1012.02 1012.10 1012.26 1012.18 1012.22 1012.42 1012.50 1012.54 1012.74 1013.10 1013.26 1013.38 1013.54 1013.54 1013.58 1013.66 1013.82 1013.94 1014.10 1014.14 1014.22
1007.10 1007.58 1007.94 1008.34 1008.66 1008.78 1009.02 1009.38 1010.18 1010.98 1011.06 1011.02 1011.30 1011.42 1011.50 1011.62 1011.74 1011.90 1012.02 1012.02 1011.86 1011.82 1011.82 1011.86 1011.82 1011.70 1011.58 1011.58 1011.82 1012.18 1012.66 1012.98 1013.18 1013.34 1013.42 1013.38 1013.58 1013.66 1013.82 1013.90 1013.94 1014.10
1007.30 1007.78 1008.26 1008.74 1009.06 1009.18 1009.26 1009.70 1010.22 1010.98 1011.18 1011.22 1011.38 1011.50 1011.54 1011.54 1011.50 1011.46 1011.66 1011.90 1012.06 1012.22 1012.22 1012.14 1012.06 1011.86 1011.70 1011.74 1011.82 1011.98 1012.34 1012.70 1012.94 1013.18 1013.14 1013.18 1013.46 1013.54 1013.62 1013.70 1013.82 1013.98
Wind_Speed
9 8 9 9 9 8 10 9 7 8 7 7 7 7 8 7 7 8 8 6 6 7 6 6 5 5 5 5 4 4 4 4 3 3 4 4 4 4 4 6 6 6
9 9 8 8 7 6 7 8 9 8 8 8 7 7 6 6 8 8 7 7 6 7 7 7 6 6 5 5 4 4 3 3 3 3 4 5 5 5 6 6 6 5
9 9 9 10 9 9 9 7 7 8 8 9 8 7 7 6 8 7 7 7 7 7 7 6 6 5 5 5 4 3 3 3 4 3 4 5 4 5 6 5 5 6
9 11 11 10 9 10 8 8 7 7 7 7 8 8 7 7 7 8 7 7 7 7 6 5 5 5 4 4 3 3 4 4 4 3 3 2 3 4 5 4 4 4
13 11 9 9 9 9 9 9 10 8 9 9 8 7 7 7 7 7 7 7 6 6 5 5 5 5 4 4 4 4 4 4 4 3 3 4 3 3 4 4 5 6
11 12 11 11 10 10 9 10 10 10 9 9 9 8 8 8 7 7 7 6 5 5 5 5 5 5 4 5 4 4 4 4 4 2 3 4 5 4 4 4 5 6
12 11 11 10 11 11 11 10 9 9 9 9 7 8 8 7 7 7 7 6 6 5 5 6 6 5 5 4 4 5 4 5 4 3 4 5 5 6 4 4 5 6
11 11 13 11 12 11 10 9 9 9 9 8 9 8 8 8 7 6 6 6 6 6 6 6 6 6 5 4 5 5 5 3 4 4 5 6 4 5 5 4 4 5
12 12 11 12 14 12 12 11 10 10 9 9 7 7 7 7 7 7 6 6 6 6 6 6 6 6 5 5 5 5 5 5 4 5 6 6 6 6 6 4 4 5
14 12 13 13 14 12 13 12 11 10 8 8 9 7 8 7 7 7 7 7 7 6 6 7 6 6 5 5 5 5 5 6 6 5 6 6 6 6 6 5 6 6
14 13 14 15 14 11 12 10 11 10 8 9 9 9 9 8 7 6 7 7 7 7 7 7 7 6 6 5 5 5 6 6 6 6 6 6 6 7 5 5 5 7
15 15 16 15 13 11 12 9 8 7 7 7 9 10 8 8 8 7 7 8 7 7 7 7 7 6 6 6 6 5 5 5 6 6 7 7 6 6 5 5 6 7
16 16 12 8 5 4 4 0 2 2 5 9 8 9 9 8 7 8 7 8 8 7 7 7 7 7 6 7 7 6 6 6 6 7 7 6 6 6 5 5 6 6
16 13 11 10 10 8 7 7 7 7 8 6 7 9 8 9 9 9 8 7 8 8 8 7 7 7 7 7 7 7 6 7 7 7 7 6 6 5 5 5 6 6
11 7 10 11 13 12 10 10 10 10 7 5 6 7 7 8 8 9 8 8 7 7 8 7 7 7 7 7 7 8 7 7 7 7 7 7 6 6 5 6 6 6
7 9 8 9 12 13 13 12 11 10 8 7 8 9 8 7 7 8 8 9 9 8 8 7 7 6 8 13 11 7 7 6 6 6 6 7 6 6 6 5 6 5
14 16 16 17 18 16 14 11 9 6 5 7 8 8 8 8 8 8 8 8 9 8 8 7 7 7 13 12 12 12 8 6 6 7 7 7 7 7 7 6 5 5
14 18 20 20 17 12 9 11 9 8 7 5 6 7 8 7 8 9 9 8 7 8 8 8 7 10 13 12 11 11 9 7 6 6 7 7 7 7 7 5 5 4
12 15 17 17 16 13 12 9 9 9 8 9 11 10 8 8 9 8 8 7 8 8 9 8 7 10 12 12 12 12 12 10 7 7 7 7 6 6 6 5 4 4
13 13 14 11 10 9 7 10 10 9 10 12 11 9 7 7 7 8 8 8 8 8 8 7 7 9 12 13 12 12 12 9 7 7 6 6 7 5 4 5 5 5
11 7 6 9 9 9 9 8 10 7 7 8 6 6 8 8 8 8 8 8 8 7 7 8 8 11 10 9 8 10 11 8 6 6 6 5 2 4 6 5 4 4
10 11 14 14 14 16 17 17 15 14 11 6 4 6 6 6 6 7 9 9 8 8 8 8 7 7 8 10 11 10 8 5 6 7 6 6 5 5 5 5 4 4
13 14 14 14 13 17 15 11 9 6 4 3 5 6 6 7 8 8 8 7 7 7 8 7 6 7 8 7 7 8 5 5 6 5 5 4 4 4 3 3 3 4
12 14 15 17 16 15 10 6 5 3 2 2 6 6 6 7 4 4 4 4 6 7 7 7 7 3 3 6 7 6 6 6 5 4 4 4 3 2 2 3 3 5
10 10 11 12 12 10 11 12 10 6 8 5 6 5 4 3 4 5 4 5 5 6 8 9 6 7 8 5 2 4 6 5 4 4 4 4 2 2 2 2 2 1
7 8 5 4 3 5 6 8 9 11 10 4 2 2 3 4 5 6 6 4 2 1 1 2 4 6 4 2 3 5 9 5 4 5 6 4 2 2 2 2 1 1
Wind_Direction
179 176 178 180 180 177 173 173 178 168 175 171 174 184 180 189 181 177 183 185 189 183 189 191 193 205 212 203 194 186 185 193 197 197 203 197 222 212 217 216 216 214
181 178 177 173 170 174 177 175 172 171 173 175 185 179 192 176 187 179 182 190 198 197 192 191 194 201 205 208 195 190 196 190 213 178 186 202 213 202 222 219 216 220
174 176 174 171 173 174 176 180 172 175 172 182 180 179 179 186 179 187 185 189 196 205 198 195 197 206 207 210 198 203 218 205 242 199 189 208 191 202 222 222 222 200
182 182 179 176 169 171 171 168 177 176 172 167 183 182 176 179 179 183 193 196 198 203 203 195 205 211 214 222 202 220 221 226 229 210 216 229 214 207 231 221 229 229
182 184 181 172 172 168 166 172 174 176 173 179 178 178 177 175 179 188 190 198 197 202 199 206 207 216 214 221 204 223 228 231 234 202 217 244 240 214 239 223 229 237
186 182 175 171 171 167 174 177 175 173 173 173 184 178 181 180 182 188 191 192 195 199 204 208 210 219 206 213 193 218 226 229 245 186 220 242 251 218 227 226 231 240
185 179 175 170 170 174 173 178 172 172 179 184 177 184 175 178 185 191 189 189 189 198 202 206 210 222 211 204 199 222 228 232 243 209 229 243 237 253 226 225 227 241
186 183 178 174 170 174 176 175 171 176 186 184 184 183 170 176 187 192 190 185 186 203 207 208 211 220 216 190 206 218 236 200 233 226 231 244 241 249 244 216 217 236
183 187 182 178 174 174 174 174 176 182 186 182 183 177 175 176 186 189 191 189 198 202 204 208 214 221 213 190 208 214 231 236 220 223 225 238 236 243 245 223 222 233
189 184 180 183 185 180 175 172 179 182 181 180 184 178 179 184 185 186 186 192 201 203 202 214 218 223 216 204 211 210 219 236 238 222 225 230 234 239 241 216 225 233
193 188 185 186 187 176 172 180 180 181 174 181 181 186 186 180 186 179 187 192 199 203 207 212 219 215 220 221 218 209 215 229 241 242 234 232 231 233 233 225 224 229
196 194 192 188 184 174 176 182 183 171 167 192 190 187 186 186 185 185 189 196 201 206 207 216 219 217 220 230 230 218 216 223 233 235 237 235 234 235 235 228 237 242
198 195 186 173 120 58 86 88 309 130 186 206 200 191 182 181 191 193 200 196 204 203 208 213 218 216 220 227 232 226 219 221 229 231 236 233 236 237 236 230 233 241
202 185 154 124 115 142 188 167 178 187 200 214 214 198 188 187 188 198 201 200 203 203 210 211 215 217 221 225 227 222 213 219 223 227 228 231 235 235 231 231 230 235
195 137 116 145 155 155 165 182 187 193 192 195 223 218 199 195 195 197 198 203 207 204 210 211 210 218 219 218 218 218 211 219 220 220 223 226 232 233 228 227 232 233
74 80 112 166 170 169 180 183 193 192 176 189 211 217 205 197 198 198 199 203 203 207 210 210 213 216 222 219 216 217 214 219 220 217 216 219 225 237 235 224 228 230
122 136 170 180 190 188 173 167 194 193 194 204 205 210 206 202 197 199 204 205 204 202 207 210 214 217 221 223 224 225 225 224 221 223 210 215 217 218 238 231 220 227
155 167 180 186 185 174 158 168 176 161 183 204 225 222 214 203 203 205 205 205 205 207 210 210 215 223 222 225 228 231 228 229 224 224 209 212 213 214 226 229 238 243
167 178 187 189 176 164 173 172 183 178 163 201 215 220 209 203 211 203 208 206 204 209 214 214 219 226 224 225 226 227 224 219 228 218 215 219 216 220 216 218 221 240
182 188 196 181 147 140 175 184 184 194 204 212 203 203 202 217 213 210 212 209 210 211 215 214 221 229 224 226 229 232 233 223 229 209 198 210 212 207 231 227 215 215
182 172 89 89 133 149 195 202 184 176 204 231 213 183 206 216 211 215 218 215 213 207 210 220 228 228 228 236 244 240 238 225 221 201 211 216 137 208 230 227 218 217
156 138 149 167 164 174 192 190 185 186 180 183 183 209 215 219 228 222 223 218 208 201 206 225 231 210 207 218 226 234 233 222 217 218 214 206 207 200 219 230 218 216
166 164 162 163 178 191 195 187 179 147 145 178 193 209 218 213 221 220 225 219 204 204 209 226 245 225 222 234 238 230 200 221 216 216 220 216 224 206 210 214 222 222
170 171 172 178 184 194 176 128 84 28 288 214 226 225 224 228 224 244 252 231 208 199 192 203 230 229 198 219 226 228 212 220 205 208 225 228 229 173 210 217 222 232
168 168 174 172 173 172 155 140 153 186 237 225 222 220 215 143 154 181 203 218 218 187 187 199 217 237 244 272 263 205 195 202 191 198 220 229 150 223 210 212 228 228
142 141 111 88 60 52 72 125 162 183 224 201 188 123 109 107 150 174 177 181 221 273 313 267 256 256 268 257 201 193 193 179 180 188 221 212 164 192 226 221 243 287